Location: Kavul?ru
(16.6288°N, 80.5832°E)
Time: 20:04:58
(UTC+00:00)

ARIANE 5 R/B - Pass Details

Date: 15 May 2026
Orbit: 245 x 30855 km, 6.0° (Epoch: 8 June)

Event Time Altitude Azimuth Distance (km) Brightness Sun altitude
Rises 07:11:22 0° 257° (WSW) 16,978 9.5 80.8°
Reaches altitude 10° 07:31:41 10° 254° (WSW) 20,034 10.0 76.1°
Drops below altitude 10° 11:41:59 10° 259° (W) 34,490 12.2 17.3°
Maximum altitude 15:03:43 44° 196° (SSW) 2,186 4.6 -27.2°
Enters shadow 15:05:12 40° 170° (S) 1,913 4.1 -27.5°
